This is the latest recevied weather packets stored in our database for station/object TF3VP-10. If no packets are shown the sender has not sent any weather packets the latest 10 day(s).
| Time | Temp. | Humidity | Pressure | Rain* | Wind** | Luminosity | Snow |
|---|---|---|---|---|---|---|---|
| 1778297178 | 3.33° C | 65% | 1038.1 hPa | - | - | - | - |
| 1778296279 | 3.33° C | 63% | 1038.1 hPa | - | - | - | - |
| 1778295378 | 3.33° C | 66% | 1038.1 hPa | - | - | - | - |
| 1778294478 | 3.33° C | 69% | 1038.3 hPa | - | - | - | - |
| 1778293578 | 3.33° C | 69% | 1038.2 hPa | - | - | - | - |
| 1778292678 | 3.33° C | 68% | 1038.1 hPa | - | - | - | - |
| 1778291778 | 3.33° C | 70% | 1038.4 hPa | - | - | - | - |
| 1778290878 | 3.33° C | 70% | 1038.2 hPa | - | - | - | - |
| 1778289978 | 3.33° C | 69% | 1038.2 hPa | - | - | - | - |
| 1778289078 | 3.33° C | 70% | 1038.2 hPa | - | - | - | - |
| 1778288178 | 3.33° C | 71% | 1038.2 hPa | - | - | - | - |
| 1778287278 | 2.78° C | 71% | 1038.4 hPa | - | - | - | - |
| 1778286378 | 2.78° C | 71% | 1038.4 hPa | - | - | - | - |
| 1778285478 | 3.33° C | 70% | 1038.2 hPa | - | - | - | - |
| 1778284578 | 3.33° C | 69% | 1038.1 hPa | - | - | - | - |
| 1778283678 | 3.33° C | 69% | 1037.9 hPa | - | - | - | - |
| 1778282779 | 3.33° C | 68% | 1038.1 hPa | - | - | - | - |
| 1778281878 | 3.33° C | 67% | 1038 hPa | - | - | - | - |
| 1778280978 | 3.33° C | 67% | 1037.9 hPa | - | - | - | - |
| 1778280078 | 3.89° C | 67% | 1038.1 hPa | - | - | - | - |
| 1778279179 | 3.89° C | 67% | 1037.9 hPa | - | - | - | - |
| 1778278279 | 3.89° C | 67% | 1037.9 hPa | - | - | - | - |
| 1778277379 | 3.89° C | 66% | 1037.8 hPa | - | - | - | - |
| 1778276479 | 3.89° C | 66% | 1037.8 hPa | - | - | - | - |
| 1778275579 | 3.89° C | 66% | 1037.9 hPa | - | - | - | - |
* Rain since midnight (hover to see other rain measurements)
** Current wind speed in m/s (hover to see current wind gust speed)